Wind_Speed
18 16 13 11 7 4 4 4 5 6 15 16 14 25 20 17 16 19 20 14 11 17 15 15 21 21 21 30 33 40 41 40 34 30 31 30 29 27 26 24 22 20 18 17
13 9 8 5 1 2 4 3 5 7 9 11 16 20 15 10 11 13 10 9 20 17 21 18 20 17 22 23 26 35 41 39 36 31 29 29 29 29 28 26 25 24 23 22
4 3 1 5 6 3 3 3 3 7 10 11 16 16 17 9 12 13 11 3 4 14 23 27 23 20 25 39 24 29 30 34 31 29 27 24 25 24 23 24 26 26 23 25
2 1 3 4 4 6 5 4 6 8 11 11 15 13 15 5 16 6 6 10 12 8 10 22 28 30 29 29 30 28 28 27 28 31 36 37 30 24 22 22 22 26 26 28
2 3 8 6 5 4 6 6 11 12 8 18 11 7 8 8 7 10 12 15 14 20 19 15 14 15 21 23 26 23 23 26 27 27 26 33 31 35 30 27 28 29 33 33
2 2 2 4 4 7 5 3 5 9 7 11 8 6 7 2 7 4 4 8 10 13 17 21 22 20 15 15 13 11 14 18 20 13 17 13 24 26 24 23 24 27 28 28
3 3 4 1 1 7 3 5 17 14 8 4 9 13 13 9 4 8 2 4 3 6 9 9 11 11 14 14 9 9 5 5 5 6 6 11 10 12 14 17 19 20 22 24
3 2 2 2 11 8 7 10 11 8 7 6 6 10 6 6 6 6 4 2 5 6 7 9 9 7 6 4 1 0 3 2 5 4 6 9 14 15 16 18 19 21 22 23
1 0 8 14 7 6 4 6 5 4 7 8 9 7 8 6 6 2 6 11 10 10 10 10 8 7 6 6 5 4 6 7 9 10 12 14 12 14 16 17 19 21 22 23
3 4 5 5 7 5 3 5 3 1 5 7 9 10 10 8 9 9 11 13 12 10 9 8 7 7 6 6 4 4 5 5 7 9 10 12 13 13 15 15 16 18 21 22
3 7 6 5 5 3 4 5 7 8 7 8 9 8 8 10 9 8 8 7 8 8 8 8 8 9 8 8 8 7 7 8 9 9 9 10 11 11 12 13 15 16 17 18
5 3 5 3 3 2 2 4 6 6 7 8 8 8 8 7 8 8 8 8 8 9 10 11 11 11 11 11 11 10 10 11 12 13 13 13 13 13 14 14 15 17 18 19
1 1 1 2 3 4 5 7 9 10 11 10 10 11 8 8 7 9 10 13 12 11 12 12 13 14 15 14 13 12 11 11 12 13 14 15 16 17 17 18 18 18 18 19
8 6 7 7 8 9 10 11 13 14 13 15 15 14 12 12 12 12 14 15 16 15 15 15 14 14 15 15 16 16 15 15 15 15 16 17 17 17 18 18 18 18 18 18
10 12 13 12 11 12 15 18 19 19 18 17 16 16 16 16 16 15 15 16 17 17 18 18 17 16 16 16 17 18 17 18 18 18 18 18 18 18 18 18 18 18 18 18
12 13 14 17 18 19 20 19 17 16 15 17 19 20 20 20 20 19 18 17 16 16 16 15 15 15 16 16 17 17 17 17 18 18 18 18 17 17 17 17 17 17 17 17
18 17 17 17 18 20 19 19 19 19 19 19 20 21 21 20 19 19 18 18 19 19 18 17 17 17 17 17 16 16 16 17 17 17 17 17 17 17 17 17 18 18 19 19
18 17 17 18 17 18 19 21 22 21 20 19 18 18 18 18 18 17 18 18 18 19 19 18 18 18 18 18 18 18 17 17 17 18 18 18 18 18 19 19 20 20 21 22
11 12 14 16 18 19 20 21 20 19 20 20 20 19 18 18 17 16 17 18 18 19 19 19 18 18 17 17 17 17 16 16 17 17 17 18 18 19 20 20 21 21 22 22
12 14 16 16 15 13 12 13 13 14 15 16 17 17 17 16 16 15 15 15 16 16 16 16 17 17 16 16 17 17 18 18 18 18 18 19 19 20 20 20 21 21 22 22
11 8 7 8 9 11 12 13 14 14 15 15 15 15 16 16 16 16 16 16 16 16 16 17 17 18 18 19 19 20 20 20 21 21 21 21 21 21 21 22 22 22 21 22
6 8 9 11 12 12 13 14 14 15 16 17 17 18 19 20 20 20 20 20 20 20 20 20 20 20 21 21 21 21 21 21 22 22 22 22 23 23 23 23 22 22 23 23
9 11 12 14 14 15 16 17 18 19 19 20 20 20 21 21 22 23 23 23 23 23 23 23 22 23 23 23 23 23 24 24 24 24 24 24 23 23 23 23 22 22 22 22
12 13 14 16 17 18 18 18 19 19 19 20 21 21 22 23 23 23 23 23 23 23 23 23 23 23 23 23 23 23 22 22 22 22 21 21 21 20 20 20 20 21 21 21
14 16 16 16 16 16 16 17 17 18 19 20 20 21 21 22 22 22 22 22 22 21 21 21 21 20 20 20 20 20 19 19 19 19 18 18 18 18 18 19 19 20 20 21
17 17 16 17 17 17 17 18 19 20 20 21 21 21 22 22 22 22 22 21 21 21 20 20 19 19 19 19 18 18 18 17 17 17 17 17 18 18 18 18 19 20 20 21
17 18 18 18 18 18 19 19 20 20 21 21 22 21 21 21 20 20 19 19 18 18 18 17 17 17 17 17 17 17 17 17 17 17 17 18 18 18 19 19 20 21 21 22
Wind_Direction
102 109 125 131 136 157 203 227 250 304 321 332 331 341 340 313 314 317 329 342 225 187 196 208 204 198 197 208 201 199 203 207 206 208 215 216 217 217 217 218 217 217 218 222
88 99 106 108 90 250 246 249 279 306 339 337 331 340 333 290 290 318 331 28 35 78 171 176 177 188 199 223 200 203 206 207 209 207 215 218 219 220 219 220 221 220 220 221
105 103 26 105 76 99 117 82 344 340 326 329 327 340 357 311 323 328 314 344 286 4 58 107 149 174 205 220 214 206 201 209 211 205 200 209 213 212 216 220 222 223 228 232
113 81 119 112 37 60 110 43 5 1 355 326 325 332 341 330 358 32 60 66 52 34 7 80 121 150 159 156 181 186 188 196 198 210 218 207 197 202 213 225 231 228 240 230
112 82 118 93 62 35 18 334 318 316 326 324 327 309 332 29 84 63 89 52 50 58 52 43 57 92 111 147 153 147 169 178 186 199 205 207 210 214 235 237 242 240 241 249
110 100 107 110 8 360 338 232 332 338 334 337 298 269 301 17 158 82 65 44 57 42 33 33 42 49 76 107 117 126 150 174 183 166 191 219 220 227 221 226 232 237 245 250
66 74 104 253 4 33 299 312 310 321 343 323 310 263 269 254 221 218 183 82 19 22 15 22 6 7 18 43 73 95 100 119 144 170 198 238 238 236 244 243 244 248 250 251
23 27 144 72 317 340 291 313 337 2 353 342 338 334 288 245 243 208 199 294 315 331 346 356 352 345 339 349 319 164 46 281 283 286 249 238 251 254 250 252 255 257 260 263
303 271 299 326 353 3 347 329 356 22 28 47 46 51 52 42 18 281 355 340 292 293 323 334 339 335 321 303 290 272 258 250 235 238 255 271 263 255 251 251 255 259 261 265
298 272 311 313 324 335 316 343 190 277 330 326 328 327 325 332 324 310 280 288 290 300 311 318 330 334 338 329 319 305 293 273 252 246 246 252 255 258 261 260 258 258 261 264
228 261 281 301 291 284 253 280 298 312 316 329 325 314 301 287 270 259 259 273 277 291 306 309 315 312 311 309 308 308 306 301 297 294 284 273 266 272 271 266 268 269 270 272
220 214 184 201 170 115 19 319 311 315 317 328 336 338 341 310 267 262 279 281 280 289 298 304 307 307 303 299 297 295 295 298 297 296 296 292 290 287 285 282 280 280 279 279
133 93 204 219 243 296 322 329 327 316 312 309 316 317 320 313 301 296 292 294 292 293 294 294 296 299 300 300 297 294 292 289 286 284 284 285 285 285 283 283 280 278 276 276
309 313 310 308 309 313 314 307 314 319 307 300 300 303 308 305 298 293 290 290 293 293 290 286 284 284 285 287 289 290 289 288 285 282 282 281 280 279 279 278 277 276 275 275
299 292 293 298 298 302 308 309 305 303 302 293 291 295 301 302 298 290 283 280 279 280 281 282 283 281 277 277 278 279 280 280 280 280 281 281 281 280 280 279 278 277 277 278
293 295 287 284 289 299 305 307 306 304 296 291 289 291 293 295 297 295 292 289 285 281 278 278 279 280 281 282 281 280 279 277 277 279 279 279 277 276 276 274 274 274 275 277
281 287 289 286 289 293 296 298 299 298 297 295 293 292 290 288 288 288 289 290 291 291 290 288 287 286 286 285 282 280 279 278 278 277 275 274 273 272 271 272 274 275 276 277
279 283 284 285 288 290 292 294 296 298 302 304 303 299 296 294 295 294 293 292 291 290 290 290 290 290 288 286 284 283 281 277 275 272 271 270 271 273 274 274 275 276 277 278
284 285 284 288 292 294 295 294 298 305 305 305 302 300 299 296 293 290 289 288 289 289 289 289 289 288 286 285 283 281 277 274 273 273 273 273 275 276 277 279 280 281 281 281
295 294 297 300 301 303 308 315 316 311 306 302 301 300 300 300 299 298 295 293 291 290 289 287 286 285 286 286 285 285 284 283 282 281 280 279 280 280 280 280 279 279 279 279
311 314 310 304 305 307 304 300 298 296 295 294 295 295 295 294 294 292 292 291 290 289 287 285 285 285 285 285 284 284 284 284 284 284 284 283 282 281 281 281 281 282 282 282
307 299 293 293 293 294 294 294 294 294 294 294 293 293 293 293 292 290 289 288 287 286 285 283 282 281 281 281 281 281 282 282 282 282 281 281 282 283 284 285 285 285 284 284
303 304 307 308 306 303 300 298 296 296 295 294 292 290 288 286 285 284 283 283 282 282 280 280 280 280 280 280 280 280 279 279 279 280 281 282 283 283 284 283 283 283 283 283
298 300 299 298 298 299 299 299 298 298 297 296 295 294 293 293 291 291 289 288 286 284 283 282 280 279 277 277 276 276 277 277 278 278 278 279 279 279 279 280 281 281 282 283
301 302 303 303 302 302 303 302 302 302 301 300 300 299 297 297 296 295 293 291 290 288 285 284 282 280 279 279 279 278 278 278 278 277 277 277 277 277 279 280 281 283 284 285
313 314 315 315 313 312 310 308 306 305 305 303 302 300 298 297 295 293 291 289 287 286 284 283 281 280 279 279 279 279 279 278 278 278 278 279 280 281 282 284 285 287 288 289
315 315 314 313 311 310 309 308 307 306 306 305 304 303 301 299 297 296 293 290 287 284 283 282 280 279 279 279 279 279 278 278 278 279 279 280 281 283 284 286 287 289 290 290
Height
2978 2981 2985 2988 2990 2993 2996 2998 3000 2999 2998 2997 2992 2987 2982 2979 2977 2975 2972 2965 2963 2962 2963 2966 2968 2972 2976 2981 2984 2989 2995 3000 3004 3009 3013 3018 3022 3025 3028 3031 3034 3036 3038 3040
2981 2983 2986 2989 2991 2994 2996 2997 2997 2998 2998 2995 2992 2988 2985 2979 2977 2976 2973 2970 2968 2960 2961 2963 2966 2968 2972 2980 2982 2987 2992 2997 3000 3004 3008 3013 3016 3019 3023 3026 3028 3030 3033 3035
2983 2985 2987 2991 2994 2995 2996 2996 2997 2996 2996 2995 2990 2988 2984 2982 2980 2977 2975 2974 2968 2969 2961 2959 2961 2966 2970 2975 2981 2985 2989 2994 2998 3000 3002 3007 3011 3015 3018 3020 3023 3025 3028 3029
2985 2986 2987 2993 2993 2994 2995 2994 2994 2994 2993 2990 2989 2986 2984 2983 2981 2978 2977 2976 2973 2969 2966 2957 2957 2960 2966 2965 2973 2978 2982 2986 2990 2994 2996 2999 3001 3006 3011 3015 3018 3021 3023 3024
2987 2987 2992 2993 2993 2994 2994 2995 2991 2991 2990 2987 2987 2986 2985 2983 2983 2983 2980 2978 2977 2973 2967 2965 2960 2962 2960 2964 2966 2969 2975 2977 2983 2986 2990 2992 2995 2999 3004 3008 3011 3013 3016 3017
2987 2987 2989 2994 2993 2992 2992 2993 2991 2990 2988 2987 2986 2986 2985 2984 2984 2984 2982 2980 2979 2977 2975 2970 2967 2966 2963 2963 2966 2970 2973 2972 2977 2980 2981 2985 2988 2992 2996 2999 3001 3005 3008 3009
2988 2989 2992 2991 2991 2991 2993 2996 2989 2988 2987 2986 2986 2985 2984 2984 2983 2982 2983 2982 2981 2979 2977 2974 2974 2974 2972 2971 2971 2970 2975 2976 2978 2980 2982 2988 2989 2990 2993 2995 2997 2999 3001 3002
2990 2990 2992 2991 2992 2993 2992 2990 2989 2988 2987 2986 2985 2983 2982 2981 2981 2982 2983 2983 2982 2980 2979 2978 2978 2977 2976 2974 2974 2974 2974 2977 2978 2980 2981 2983 2987 2988 2987 2990 2991 2993 2994 2995
2993 2992 2991 2990 2989 2989 2989 2990 2989 2989 2988 2987 2986 2986 2985 2985 2984 2985 2984 2983 2982 2981 2980 2979 2979 2977 2976 2976 2974 2975 2976 2976 2978 2980 2984 2982 2984 2984 2985 2985 2987 2989 2989 2990
2992 2991 2990 2990 2989 2988 2989 2989 2989 2989 2989 2988 2987 2986 2986 2985 2985 2984 2982 2981 2980 2980 2979 2979 2977 2977 2976 2976 2975 2974 2975 2976 2977 2978 2977 2979 2979 2979 2980 2981 2981 2982 2984 2983
2990 2990 2990 2989 2989 2988 2989 2989 2989 2988 2988 2987 2986 2984 2984 2984 2983 2982 2981 2980 2979 2978 2977 2977 2976 2976 2975 2975 2974 2973 2973 2973 2973 2974 2975 2975 2975 2976 2976 2974 2975 2976 2975 2975
2989 2989 2989 2989 2989 2989 2989 2988 2987 2987 2986 2985 2984 2983 2982 2981 2981 2980 2980 2979 2977 2976 2975 2974 2973 2973 2973 2973 2973 2972 2971 2970 2970 2970 2971 2972 2971 2970 2971 2970 2969 2969 2968 2968
2990 2990 2990 2990 2989 2989 2988 2987 2986 2985 2984 2983 2982 2982 2980 2979 2979 2978 2978 2977 2976 2974 2974 2973 2972 2970 2970 2970 2969 2968 2967 2966 2966 2967 2968 2966 2965 2965 2967 2964 2963 2963 2963 2963
2989 2989 2989 2988 2988 2987 2987 2986 2984 2983 2981 2979 2979 2978 2977 2976 2976 2975 2974 2973 2972 2971 2971 2970 2970 2968 2967 2966 2965 2964 2963 2962 2962 2962 2961 2960 2959 2960 2959 2959 2958 2958 2957 2956
2987 2987 2986 2986 2985 2985 2984 2982 2980 2978 2977 2976 2975 2974 2972 2972 2971 2971 2970 2970 2969 2967 2966 2966 2965 2964 2963 2962 2961 2960 2959 2959 2959 2957 2956 2955 2954 2953 2952 2952 2951 2951 2950 2949
2985 2984 2983 2982 2981 2980 2979 2978 2975 2974 2973 2971 2970 2968 2967 2966 2965 2964 2963 2962 2962 2961 2960 2960 2959 2958 2957 2956 2955 2954 2954 2953 2952 2951 2951 2950 2949 2948 2947 2947 2946 2945 2944 2942
2981 2980 2978 2978 2977 2975 2973 2973 2971 2970 2968 2966 2965 2964 2962 2961 2959 2958 2957 2956 2955 2954 2953 2952 2952 2951 2950 2949 2949 2948 2947 2946 2946 2945 2944 2943 2942 2942 2942 2941 2939 2938 2937 2935
2976 2975 2974 2973 2972 2971 2969 2968 2966 2964 2962 2960 2959 2958 2957 2955 2954 2953 2951 2951 2950 2949 2948 2946 2945 2944 2944 2943 2942 2942 2941 2940 2940 2939 2938 2938 2937 2936 2935 2933 2933 2931 2930 2928
2972 2971 2971 2969 2968 2966 2964 2963 2961 2958 2956 2955 2954 2953 2952 2951 2950 2949 2947 2946 2945 2943 2942 2941 2940 2939 2938 2937 2936 2935 2935 2934 2934 2933 2931 2931 2930 2929 2928 2927 2925 2924 2922 2921
2968 2967 2966 2964 2963 2961 2960 2957 2955 2955 2953 2952 2951 2950 2948 2947 2945 2944 2943 2942 2940 2939 2937 2936 2935 2934 2933 2931 2930 2929 2928 2927 2927 2926 2925 2924 2923 2922 2920 2919 2918 2917 2916 2914
2964 2963 2963 2962 2960 2958 2957 2955 2954 2953 2951 2950 2949 2947 2945 2944 2942 2941 2939 2938 2936 2935 2933 2932 2930 2929 2928 2926 2925 2924 2922 2921 2920 2919 2918 2917 2916 2915 2914 2912 2911 2909 2908 2907
2962 2962 2961 2959 2958 2956 2955 2953 2952 2950 2948 2946 2945 2943 2941 2939 2938 2936 2934 2933 2931 2929 2928 2926 2925 2924 2922 2921 2920 2918 2917 2916 2915 2913 2912 2911 2909 2908 2906 2905 2903 2902 2901 2900
2960 2959 2957 2956 2955 2953 2951 2949 2947 2945 2943 2941 2939 2937 2936 2934 2932 2930 2929 2927 2925 2923 2921 2920 2919 2917 2916 2914 2913 2912 2911 2909 2908 2906 2905 2903 2902 2901 2899 2898 2897 2896 2895 2894
2959 2958 2956 2954 2952 2949 2946 2944 2942 2939 2937 2935 2933 2931 2929 2927 2925 2923 2920 2918 2917 2915 2913 2912 2910 2909 2908 2907 2905 2904 2903 2902 2901 2899 2898 2897 2896 2895 2894 2893 2892 2890 2889 2888
2956 2954 2951 2949 2946 2944 2941 2939 2936 2934 2931 2929 2927 2924 2922 2919 2917 2915 2913 2911 2909 2907 2905 2904 2903 2901 2900 2899 2898 2897 2896 2895 2894 2893 2892 2891 2890 2889 2888 2887 2886 2884 2883 2882
2950 2948 2945 2943 2940 2938 2935 2933 2930 2928 2925 2922 2920 2917 2915 2913 2910 2908 2906 2904 2902 2900 2898 2897 2896 2895 2893 2892 2891 2890 2889 2888 2887 2886 2885 2885 2884 2883 2882 2881 2879 2878 2876 2875
2945 2943 2940 2938 2936 2933 2931 2928 2925 2922 2919 2917 2914 2911 2909 2906 2904 2902 2899 2897 2896 2894 2892 2891 2890 2888 2887 2886 2885 2884 2883 2882 2881 2880 2879 2878 2877 2876 2875 2874 2873 2871 2869 2868